Location: Ch�tillon
(48.8024°N, 2.2935°E)
Time: 07:08:11
(UTC+00:00)

LO-87 - Pass Details

Date: 05 July 2022
Orbit: 450 x 466 km, 97.4° (Epoch: 17 August)

Event Time Altitude Azimuth Distance (km) Brightness Sun altitude
Exits shadow 22:50:57 30° 114° (ESE) 852 ? -17.0°
Maximum altitude 22:52:03 40° 71° (ENE) 700 ? -17.1°
Drops below altitude 10° 22:55:21 10° 1° (N) 1,634 ? -17.2°
Sets 22:57:29 0° 354° (N) 2,519 ? -17.3°
